{"data":{"norad_id":58766,"intl_designator":"2024-011B","name":"STARLINK-31114","alt_names":[],"object_type":"PAYLOAD","status":"ACTIVE","operator":null,"country":"US","launch_date":"2024-01-14","launch_site_code":"AFWTR","launch_vehicle":null,"mission":null,"orbit_class":"UNKNOWN","rcs_meters":null,"size_class":null,"mass_kg":null,"dimensions":null,"purposes":["comms"],"wikipedia_slug":null,"has_3d_model":false,"image_url":null,"decayed_at":null,"tle_current":{"epoch":"2026-05-25T00:16:27.432768Z","epoch_age_seconds":67378,"freshness":"FRESH","line1":"1 58766U 24011B   26145.01142862  .00000346  00000+0  23809-4 0  9990","line2":"2 58766  53.1616  17.1935 0001159  93.0587 267.0547 15.30189570131982","mean_motion":15.3018957,"eccentricity":0.0001159,"inclination_deg":53.1616,"raan_deg":17.1935,"arg_perigee_deg":93.0587,"mean_anomaly_deg":267.0547,"bstar":2.3809e-5,"rev_number":13198,"period_min":94.105987142495,"perigee_km":474.45190458196,"apogee_km":476.04051881043,"semimajor_km":6853.3832116962,"source":"CELESTRAK","updated_at":"2026-05-25T13:38:18.743409Z"}}}